GFSNE_700_temp_273.txt.gz
Temp
6 6 6 6 7 6 5 5 4 4 4 4 3 3 3 3 2 3 3 2 2 2 1 2 2 2 3 3 2 2 2 2 2 2 2 2 1 2
6 6 6 6 6 5 5 4 4 3 3 3 3 3 3 3 2 2 2 3 2 2 2 2 2 2 2 3 2 2 2 2 2 2 2 1 1 1
5 6 6 6 5 4 4 3 3 3 3 3 3 3 3 4 3 2 2 2 2 2 2 2 2 1 2 2 1 1 2 2 1 1 1 1 1 1
5 5 5 5 4 3 3 3 3 3 3 3 3 3 3 3 3 3 3 3 2 1 1 2 2 2 2 2 2 1 2 2 2 1 1 1 1 0
5 4 4 3 3 3 2 2 2 2 2 3 3 3 3 3 3 3 3 3 3 3 2 2 2 2 2 1 1 1 1 1 1 1 1 1 1 -0
4 4 3 3 2 2 2 1 2 1 1 2 2 2 2 2 2 3 3 3 3 3 3 2 2 2 2 2 0 1 1 0 0 1 1 1 1 0
2 3 3 2 2 2 2 1 1 1 0 1 1 1 1 1 1 2 2 2 2 2 2 2 2 2 2 1 1 0 1 0 1 0 0 0 1 0
2 2 1 1 1 0 0 0 0 0 -0 -1 -0 -0 -1 -0 0 0 1 1 1 0 2 1 2 1 1 1 1 0 0 -1 -0 0 0 0 0 -0
1 1 0 0 0 -0 -1 -1 -2 -2 -2 -2 -2 -1 -1 -1 -1 -1 -1 -0 0 0 0 -0 -1 -1 -0 0 0 1 0 0 -0 -0 -0 -0 -0 -0
-1 -1 -1 -1 -1 -1 -1 -2 -2 -3 -3 -3 -3 -3 -3 -3 -2 -2 -2 -2 -2 -2 -1 -0 -0 -1 -1 -1 -1 -1 -0 -0 -0 -1 -1 -1 -1 -1
-2 -2 -2 -2 -2 -2 -2 -3 -3 -3 -3 -3 -4 -4 -4 -4 -4 -4 -4 -4 -3 -3 -3 -2 -2 -2 -2 -2 -2 -2 -2 -2 -2 -2 -2 -2 -3 -3
-3 -3 -3 -3 -3 -3 -3 -3 -3 -4 -4 -4 -5 -5 -5 -5 -6 -6 -5 -5 -5 -4 -4 -4 -4 -3 -2 -3 -3 -3 -3 -3 -3 -4 -4 -4 -4 -4
-3 -3 -4 -4 -4 -4 -4 -4 -4 -4 -5 -6 -6 -6 -6 -7 -7 -7 -7 -6 -6 -6 -5 -6 -6 -6 -5 -5 -5 -5 -4 -4 -5 -5 -5 -6 -6 -6
-4 -5 -5 -5 -6 -6 -6 -7 -7 -7 -7 -7 -7 -8 -8 -8 -9 -9 -8 -8 -7 -7 -7 -7 -6 -6 -6 -6 -6 -6 -5 -5 -5 -5 -6 -6 -6 -6
-6 -7 -7 -7 -8 -8 -9 -10 -10 -10 -10 -10 -10 -10 -11 -11 -11 -10 -10 -10 -9 -9 -8 -8 -8 -8 -7 -7 -7 -7 -7 -6 -6 -6 -6 -7 -7 -7
-8 -9 -9 -10 -11 -11 -12 -12 -13 -13 -13 -12 -12 -13 -14 -13 -13 -12 -12 -11 -11 -10 -10 -10 -10 -9 -9 -8 -8 -8 -8 -7 -7 -7 -7 -7 -7 -7
-11 -12 -12 -12 -13 -13 -13 -14 -15 -15 -15 -15 -15 -15 -16 -16 -14 -14 -13 -12 -12 -11 -11 -11 -11 -10 -10 -9 -9 -9 -9 -8 -8 -8 -7 -7 -7 -7
-14 -14 -14 -15 -15 -15 -16 -16 -17 -17 -17 -17 -17 -17 -17 -16 -15 -14 -14 -13 -12 -12 -12 -12 -11 -11 -11 -10 -10 -10 -9 -9 -8 -8 -8 -8 -8 -8
-17 -17 -18 -18 -18 -18 -18 -18 -18 -17 -17 -17 -17 -17 -16 -16 -15 -14 -13 -13 -12 -12 -12 -12 -11 -11 -11 -11 -10 -10 -9 -9 -9 -9 -8 -8 -8 -8
-18 -19 -18 -18 -18 -18 -18 -17 -17 -17 -17 -17 -16 -16 -16 -16 -15 -14 -14 -13 -13 -12 -12 -12 -12 -11 -11 -11 -10 -10 -9 -9 -9 -9 -9 -8 -8 -7
-19 -18 -18 -18 -18 -18 -17 -17 -17 -17 -17 -17 -16 -16 -16 -15 -15 -14 -14 -13 -13 -12 -12 -12 -12 -11 -11 -11 -11 -10 -9 -9 -9 -9 -9 -8 -8 -7
-19 -18 -18 -18 -18 -17 -17 -17 -17 -17 -16 -16 -16 -16 -15 -15 -15 -14 -14 -13 -12 -12 -12 -12 -12 -11 -11 -11 -10 -10 -10 -9 -9 -9 -8 -8 -8 -7
-19 -19 -18 -18 -18 -17 -17 -17 -17 -16 -16 -16 -16 -16 -15 -15 -15 -14 -14 -13 -12 -12 -12 -12 -12 -11 -11 -11 -11 -10 -10 -9 -9 -9 -8 -8 -8 -8

GFSNE_700_temp_279.txt.gz
Temp
2 1 2 3 4 5 5 5 6 5 6 5 5 4 6 5 4 4 4 5 4 4 4 4 3 3 3 3 2 2 2 2 2 2 3 2 2 1
2 1 1 3 4 5 5 5 5 5 5 4 4 4 4 4 4 4 4 4 4 4 4 4 4 4 3 3 2 2 1 2 2 2 2 1 2 1
1 1 1 3 4 4 4 4 4 4 4 4 4 4 3 4 4 4 4 4 4 4 5 4 4 4 4 3 2 2 2 2 2 2 2 2 2 2
1 2 2 3 4 3 4 4 3 3 3 3 3 3 3 3 4 4 4 4 4 3 5 4 4 4 4 4 3 2 1 2 2 2 2 2 2 2
2 2 2 2 2 2 2 2 2 2 2 2 3 3 3 3 3 3 4 4 3 3 4 4 4 4 4 4 4 3 3 1 1 3 2 2 2 2
-0 1 1 0 1 0 -0 1 1 1 2 2 2 2 2 2 2 3 3 3 3 2 3 4 4 4 4 4 4 3 3 3 3 2 2 2 2 2
-0 0 0 0 1 1 -1 -0 1 1 0 1 2 2 1 1 2 2 3 2 1 1 3 3 3 3 4 4 4 3 3 3 3 2 2 2 2 2
-1 -0 1 1 1 0 -0 -0 0 0 -0 1 0 0 0 1 0 1 1 1 1 0 1 2 2 2 3 3 3 2 2 2 2 2 2 2 2 2
-0 -0 -2 -2 -1 -1 -1 -1 -1 -1 -1 -1 -0 -0 0 -0 -0 1 -1 -1 -0 0 0 2 0 1 1 2 1 1 1 2 2 2 2 2 2 2
-3 -3 -3 -2 -2 -1 -1 -2 -2 -2 -2 -1 -1 -1 -1 -1 -1 -1 -1 -1 -1 -1 -1 0 -0 -0 -0 0 1 0 0 0 1 1 1 1 1 1
-3 -3 -3 -3 -2 -2 -2 -2 -1 -2 -2 -2 -2 -2 -1 -2 -3 -3 -3 -3 -1 -1 -2 -1 -1 -2 -2 -1 -1 -1 -1 -1 -0 -0 0 1 1 0
-4 -3 -3 -3 -3 -2 -2 -3 -2 -3 -3 -3 -3 -4 -5 -5 -5 -5 -4 -4 -4 -3 -4 -4 -3 -4 -3 -2 -2 -2 -2 -2 -2 -2 -1 -1 -1 0
-4 -4 -4 -4 -4 -4 -4 -4 -4 -4 -5 -5 -7 -7 -7 -7 -8 -8 -8 -8 -7 -6 -7 -7 -7 -7 -7 -6 -5 -4 -4 -4 -3 -3 -3 -2 -1 -1
-6 -6 -6 -7 -7 -7 -8 -8 -8 -8 -9 -9 -9 -10 -10 -10 -10 -10 -10 -10 -11 -11 -11 -12 -10 -10 -9 -8 -7 -7 -6 -6 -5 -4 -4 -3 -3 -3
-8 -8 -8 -9 -9 -9 -10 -10 -11 -11 -12 -12 -13 -13 -14 -14 -13 -13 -13 -13 -14 -15 -15 -15 -14 -13 -12 -11 -10 -9 -8 -7 -7 -6 -5 -5 -4 -4
-10 -11 -11 -11 -12 -12 -13 -14 -14 -14 -14 -14 -15 -15 -16 -15 -15 -16 -16 -16 -16 -16 -16 -16 -15 -15 -14 -12 -12 -11 -10 -9 -8 -7 -7 -6 -6 -5
-12 -12 -13 -13 -14 -15 -15 -15 -16 -16 -16 -16 -16 -16 -16 -15 -15 -16 -16 -16 -16 -16 -16 -15 -15 -15 -14 -13 -13 -13 -11 -11 -10 -8 -8 -7 -7 -6
-14 -14 -15 -16 -16 -16 -16 -16 -16 -16 -16 -16 -16 -16 -15 -15 -15 -15 -16 -16 -16 -16 -16 -15 -15 -14 -14 -13 -13 -13 -12 -12 -11 -10 -9 -8 -8 -7
-16 -16 -17 -17 -17 -17 -16 -16 -16 -16 -16 -16 -16 -15 -15 -15 -15 -15 -15 -15 -15 -15 -15 -15 -15 -15 -14 -13 -13 -13 -12 -12 -12 -11 -10 -9 -8 -8
-17 -17 -18 -18 -17 -17 -17 -16 -16 -16 -16 -16 -16 -16 -15 -15 -15 -15 -15 -15 -15 -15 -15 -15 -14 -14 -14 -14 -13 -13 -13 -12 -12 -11 -10 -10 -9 -8
-18 -18 -18 -18 -18 -17 -17 -17 -16 -16 -16 -16 -16 -16 -16 -15 -15 -15 -15 -15 -15 -15 -14 -14 -14 -14 -14 -13 -13 -13 -12 -12 -11 -11 -10 -10 -9 -8
-18 -18 -18 -18 -18 -17 -17 -17 -16 -16 -16 -16 -16 -16 -16 -15 -15 -15 -15 -15 -15 -14 -14 -13 -13 -13 -13 -13 -13 -13 -12 -12 -11 -11 -10 -10 -9 -9
-18 -18 -19 -18 -18 -17 -17 -16 -16 -16 -16 -16 -16 -16 -15 -15 -15 -15 -15 -15 -14 -14 -14 -13 -13 -13 -13 -12 -12 -12 -12 -12 -11 -11 -10 -10 -9 -9

GFSNE_700_temp_285.txt.gz
Temp
5 4 6 5 5 4 3 3 3 4 4 3 2 2 2 3 3 4 5 5 5 5 5 5 5 4 4 4 5 5 4 4 4 3 3 3 3 2
5 6 5 4 5 4 4 4 3 4 3 3 1 2 2 3 4 5 5 5 4 5 5 5 5 5 4 4 5 5 5 5 4 4 4 3 3 3
2 3 2 4 2 2 4 4 4 3 3 2 1 2 2 3 4 4 4 4 4 5 5 5 5 5 4 4 5 4 4 4 4 4 4 3 2 2
1 1 0 0 1 0 2 2 3 4 2 1 0 0 1 2 3 3 3 3 3 4 4 4 5 5 5 5 4 4 4 4 4 4 5 4 3 3
0 -0 0 0 0 -0 0 0 1 -0 -1 -2 -1 1 1 1 2 2 3 3 3 3 3 4 4 4 5 5 4 3 3 3 4 4 4 4 4 3
-1 -1 -1 -1 -1 -1 -2 -1 -2 -2 -2 -1 -1 0 1 1 2 2 2 2 1 2 2 2 2 2 3 4 4 3 3 3 3 4 4 4 4 3
-5 -6 -5 -4 -3 -4 -3 -2 -2 -1 0 0 1 1 1 1 1 2 2 1 1 1 1 1 1 2 3 3 3 3 3 3 3 3 3 4 4 3
-4 -5 -4 -3 -3 -2 -2 -2 -1 -0 0 0 -0 0 0 1 1 1 1 1 1 0 1 1 1 2 2 2 2 3 3 2 2 2 2 2 3 3
-3 -3 -3 -3 -3 -3 -3 -3 -3 -3 -2 -1 -1 -0 -0 -0 0 0 0 1 0 1 1 2 1 1 0 0 1 2 2 2 2 2 1 2 2 2
-5 -5 -5 -5 -5 -6 -5 -3 -3 -2 -1 -1 -1 -1 -1 -0 0 1 1 1 1 1 0 1 1 1 1 1 0 0 1 1 1 2 1 0 1 1
-4 -4 -4 -3 -3 -3 -3 -3 -3 -3 -2 -2 -2 -2 -2 -2 -1 -1 -1 -1 -0 -0 -1 -1 -0 0 0 0 0 0 0 0 0 0 0 1 0 -0
-5 -5 -5 -5 -5 -5 -5 -5 -4 -4 -4 -5 -5 -5 -5 -5 -4 -4 -4 -3 -3 -2 -5 -3 -3 -3 -2 -2 -1 -2 -1 -1 -1 -1 -0 0 -0 -0
-7 -7 -7 -6 -6 -6 -6 -5 -6 -6 -7 -6 -7 -8 -8 -8 -8 -8 -8 -7 -7 -8 -9 -8 -7 -7 -6 -5 -5 -5 -5 -4 -4 -4 -4 -2 -3 -3
-9 -9 -9 -9 -9 -9 -9 -9 -9 -9 -9 -10 -10 -10 -10 -11 -11 -11 -11 -11 -11 -11 -12 -12 -11 -11 -11 -10 -9 -9 -9 -8 -8 -7 -8 -8 -6 -5
-11 -11 -11 -11 -11 -11 -11 -11 -12 -12 -13 -13 -13 -13 -14 -14 -14 -14 -14 -14 -14 -14 -14 -14 -14 -14 -14 -14 -13 -14 -14 -12 -11 -11 -10 -9 -9 -8
-13 -13 -13 -13 -13 -13 -14 -14 -15 -15 -15 -15 -14 -14 -14 -14 -14 -14 -13 -13 -13 -13 -14 -14 -15 -14 -14 -14 -15 -15 -15 -15 -14 -13 -13 -11 -11 -12
-14 -14 -14 -14 -14 -15 -16 -16 -16 -16 -15 -15 -15 -14 -14 -14 -14 -14 -13 -13 -13 -13 -13 -14 -14 -14 -14 -14 -14 -14 -15 -15 -15 -15 -15 -14 -13 -12
-16 -16 -15 -15 -16 -16 -17 -17 -16 -16 -15 -15 -15 -14 -14 -14 -14 -14 -14 -14 -13 -13 -14 -14 -13 -13 -14 -14 -14 -15 -15 -14 -14 -14 -14 -14 -14 -13
-16 -16 -17 -17 -17 -17 -17 -16 -16 -16 -15 -15 -14 -14 -14 -14 -14 -14 -14 -14 -14 -14 -14 -14 -14 -14 -13 -12 -14 -15 -14 -14 -14 -14 -14 -14 -13 -13
-17 -17 -17 -17 -17 -17 -16 -16 -16 -15 -15 -15 -14 -14 -14 -14 -14 -14 -14 -14 -14 -14 -14 -14 -14 -14 -13 -13 -13 -13 -15 -14 -14 -14 -13 -13 -13 -13
-17 -17 -17 -17 -16 -16 -16 -15 -15 -15 -15 -15 -15 -15 -14 -14 -14 -14 -14 -14 -14 -14 -13 -14 -14 -14 -14 -14 -14 -13 -14 -14 -14 -14 -13 -14 -14 -13
-16 -16 -16 -15 -15 -15 -15 -15 -14 -14 -15 -15 -15 -14 -14 -14 -14 -14 -14 -14 -14 -14 -14 -14 -14 -14 -14 -14 -13 -13 -13 -13 -14 -14 -14 -14 -13 -13
-16 -16 -15 -15 -15 -14 -14 -14 -14 -15 -15 -15 -14 -14 -14 -14 -14 -14 -14 -14 -14 -14 -14 -13 -14 -14 -14 -14 -14 -14 -14 -14 -14 -14 -14 -13 -13 -13

GFSNE_700_temp_288.txt.gz
Temp
3 3 3 4 5 4 4 5 4 4 4 4 3 4 3 3 2 2 2 3 3 4 5 5 6 6 5 5 5 5 5 5 5 5 5 5 4 4
5 3 1 1 3 3 4 4 5 4 4 3 3 3 3 3 2 3 2 2 3 3 4 4 5 5 5 5 5 5 5 5 5 5 5 5 5 4
3 1 2 2 1 1 2 4 5 4 3 3 3 3 2 2 2 1 1 1 2 3 4 4 4 5 5 5 4 4 4 4 5 5 5 5 5 4
-1 -0 -0 0 0 0 1 1 2 2 3 2 2 2 2 1 1 0 1 1 1 2 3 4 4 4 4 4 4 4 4 4 5 5 5 5 5 5
-2 -1 -1 -0 -1 0 -0 0 -0 0 0 -0 0 1 1 1 0 -0 0 1 1 2 2 2 3 3 4 4 3 3 3 3 3 4 4 5 5 5
-3 -3 -2 -1 -1 -0 -0 -1 -1 -2 -1 -1 -2 -2 -1 -1 -1 -1 -0 -0 1 1 2 2 3 3 3 3 3 3 3 2 3 3 4 4 4 4
-4 -4 -3 -3 -3 -3 -3 -4 -5 -6 -5 -4 -3 -3 -3 -2 -2 -1 -1 -0 0 1 1 1 1 2 2 2 2 2 2 2 3 3 3 3 4 4
-5 -5 -5 -5 -5 -5 -4 -4 -4 -3 -2 -2 -2 -2 -2 -1 -2 -1 -0 -1 -0 0 1 1 0 0 0 1 1 2 2 2 2 2 2 2 3 3
-6 -5 -5 -5 -5 -4 -4 -3 -3 -3 -3 -2 -2 -2 -2 -2 -1 -1 -0 0 1 0 0 1 0 1 1 0 0 1 1 2 2 2 2 2 2 2
-7 -7 -7 -7 -7 -7 -6 -5 -4 -5 -4 -3 -2 -3 -3 -2 -1 -1 -1 -1 -0 -0 0 1 0 0 0 0 0 0 0 1 1 2 2 2 2 2
-6 -6 -6 -5 -5 -5 -5 -4 -4 -3 -3 -2 -2 -2 -1 -1 -1 -2 -2 -1 -1 -2 -1 -0 -0 0 0 0 -0 -0 -0 -0 0 1 2 2 2 2
-7 -7 -6 -6 -6 -6 -5 -5 -5 -5 -5 -4 -4 -4 -4 -4 -3 -3 -3 -3 -3 -4 -4 -3 -3 -2 -1 -2 -2 -2 -2 -2 -1 -1 -0 0 1 2
-9 -9 -9 -8 -8 -7 -7 -8 -7 -7 -7 -7 -7 -8 -8 -8 -7 -8 -7 -6 -7 -7 -7 -5 -5 -6 -5 -4 -4 -4 -4 -4 -4 -3 -3 -2 -0 1
-10 -10 -10 -10 -10 -10 -10 -10 -10 -10 -10 -11 -11 -11 -11 -11 -11 -11 -11 -11 -11 -10 -11 -10 -9 -9 -9 -8 -9 -9 -8 -7 -6 -5 -5 -4 -4 -2
-12 -12 -12 -12 -12 -12 -12 -13 -13 -14 -13 -13 -13 -13 -13 -13 -13 -13 -13 -12 -12 -12 -13 -13 -12 -12 -12 -12 -11 -11 -12 -11 -11 -9 -8 -8 -7 -6
-14 -14 -14 -14 -14 -14 -15 -15 -15 -15 -15 -14 -14 -14 -13 -13 -13 -13 -12 -12 -12 -12 -13 -13 -13 -12 -12 -12 -12 -12 -13 -13 -13 -13 -13 -11 -10 -9
-15 -15 -15 -15 -15 -15 -16 -16 -16 -15 -15 -14 -14 -13 -13 -13 -13 -13 -12 -12 -12 -12 -12 -13 -13 -13 -12 -12 -12 -12 -13 -12 -13 -14 -14 -14 -14 -13
-16 -15 -15 -15 -15 -16 -16 -16 -16 -15 -15 -14 -14 -13 -13 -13 -13 -13 -13 -13 -13 -13 -13 -12 -12 -12 -13 -13 -14 -12 -12 -13 -13 -14 -14 -14 -14 -14
-16 -16 -16 -16 -16 -15 -15 -15 -14 -14 -14 -14 -13 -13 -14 -13 -13 -13 -13 -13 -13 -13 -13 -13 -13 -12 -12 -12 -12 -14 -13 -13 -14 -14 -14 -14 -14 -14
-15 -15 -15 -15 -14 -14 -14 -14 -14 -14 -14 -14 -14 -14 -13 -13 -13 -13 -13 -13 -13 -13 -13 -13 -13 -13 -13 -12 -11 -13 -14 -13 -13 -13 -13 -14 -14 -14
-14 -14 -14 -14 -14 -14 -14 -14 -14 -14 -14 -14 -14 -14 -14 -13 -13 -13 -13 -13 -13 -13 -13 -13 -13 -13 -13 -13 -12 -12 -13 -14 -13 -13 -13 -13 -13 -14
-15 -14 -14 -14 -14 -14 -14 -14 -14 -14 -14 -14 -14 -14 -14 -14 -14 -14 -13 -13 -13 -13 -13 -13 -14 -14 -14 -14 -13 -13 -13 -13 -14 -13 -14 -14 -14 -13
-15 -15 -15 -15 -14 -14 -14 -14 -14 -14 -14 -14 -14 -14 -14 -14 -14 -14 -14 -14 -13 -13 -13 -13 -13 -13 -13 -13 -13 -13 -13 -14 -14 -14 -14 -14 -14 -14

GFSNE_700_temp_291.txt.gz
Temp
2 2 2 3 3 3 4 3 3 3 4 4 4 4 3 4 4 3 3 4 4 4 3 2 3 3 3 4 5 6 5 5 5 5 5 5 5 5
1 2 2 3 3 2 2 2 1 2 4 4 4 3 3 4 3 3 3 3 4 2 3 2 1 2 3 4 5 5 5 5 5 5 5 5 5 5
-1 -1 2 0 -0 1 1 1 2 2 3 3 3 3 4 4 3 3 3 3 3 3 3 3 2 3 4 4 4 4 4 5 5 4 5 5 5 6
-2 -2 -1 -1 -1 -1 -0 0 1 1 1 1 2 2 2 3 3 3 3 3 2 2 2 2 2 3 3 3 4 4 4 4 4 4 4 5 5 5
-3 -3 -2 -2 -2 -1 -1 -0 -1 -1 0 0 0 1 2 2 1 2 2 2 2 2 1 1 2 2 3 3 3 3 3 4 4 4 4 4 4 4
-4 -4 -4 -3 -3 -3 -2 -2 -2 -1 -1 -1 -1 -1 -0 -1 -0 0 0 -0 1 0 -0 -1 1 1 2 2 3 3 3 4 4 3 3 3 3 4
-5 -5 -5 -5 -5 -5 -5 -4 -4 -3 -3 -3 -2 -2 -1 -1 -1 -1 -1 -1 -1 -1 -1 -2 -2 -1 -0 1 2 3 3 3 3 2 2 2 3 3
-6 -6 -6 -6 -5 -5 -5 -5 -4 -4 -3 -3 -3 -2 -2 -2 -2 -2 -5 -5 -4 -2 -2 -2 -1 -0 0 1 2 2 2 3 3 2 2 2 2 3
-8 -8 -7 -7 -6 -5 -5 -5 -4 -5 -4 -3 -3 -3 -2 -2 -2 -2 -2 -2 -2 -2 -1 -1 -1 -0 0 1 1 2 2 2 2 2 2 2 1 2
-8 -7 -7 -7 -6 -6 -5 -5 -6 -5 -5 -5 -4 -4 -4 -3 -4 -4 -4 -4 -4 -3 -2 -2 -1 -1 -1 0 1 1 1 1 1 1 2 2 1 2
-7 -7 -7 -7 -7 -7 -7 -7 -6 -5 -5 -5 -4 -4 -4 -4 -4 -3 -3 -4 -3 -3 -2 -2 -2 -1 -1 -1 -1 -1 -0 -0 -0 0 0 1 1 2
-9 -9 -9 -8 -8 -8 -8 -8 -8 -8 -7 -7 -6 -6 -6 -5 -5 -4 -4 -4 -5 -4 -4 -4 -4 -2 -2 -3 -3 -2 -2 -2 -1 -1 -0 0 1 2
-11 -10 -10 -10 -9 -9 -9 -9 -9 -9 -9 -9 -9 -9 -9 -8 -8 -8 -7 -7 -7 -7 -5 -5 -5 -5 -5 -4 -5 -5 -4 -4 -3 -2 -2 -2 -1 1
-11 -11 -11 -11 -11 -11 -11 -11 -12 -12 -12 -12 -11 -11 -11 -11 -11 -11 -11 -10 -10 -9 -9 -8 -9 -8 -8 -8 -8 -8 -7 -7 -6 -6 -5 -4 -3 -2
-12 -12 -12 -12 -12 -13 -13 -14 -14 -14 -14 -13 -13 -13 -13 -13 -13 -12 -12 -12 -12 -12 -11 -11 -11 -11 -10 -10 -10 -10 -11 -10 -10 -9 -9 -8 -8 -7
-14 -14 -14 -14 -14 -14 -15 -15 -15 -14 -14 -14 -13 -13 -13 -13 -12 -12 -12 -12 -12 -12 -12 -12 -11 -11 -11 -11 -11 -11 -11 -11 -11 -12 -12 -11 -10 -11
-15 -15 -15 -15 -15 -15 -15 -15 -14 -14 -14 -13 -13 -13 -13 -13 -12 -12 -12 -12 -11 -11 -12 -12 -12 -11 -11 -11 -11 -11 -11 -11 -12 -12 -12 -12 -12 -11
-15 -15 -14 -14 -14 -14 -14 -14 -14 -14 -13 -13 -13 -13 -13 -13 -13 -12 -12 -12 -12 -12 -12 -12 -12 -12 -12 -13 -13 -12 -12 -11 -11 -11 -11 -11 -11 -12
-14 -14 -14 -14 -14 -14 -14 -14 -14 -14 -13 -13 -13 -13 -13 -13 -13 -13 -13 -13 -13 -13 -13 -12 -12 -12 -11 -11 -11 -13 -12 -12 -12 -12 -12 -12 -12 -12
-14 -14 -14 -14 -14 -14 -14 -14 -14 -14 -14 -14 -13 -13 -13 -13 -13 -13 -13 -12 -12 -12 -13 -13 -12 -12 -12 -11 -10 -12 -13 -13 -12 -12 -12 -12 -12 -13
-14 -14 -14 -14 -14 -14 -14 -14 -14 -14 -14 -14 -14 -14 -13 -13 -13 -13 -13 -13 -12 -12 -12 -13 -13 -13 -12 -12 -12 -12 -12 -14 -13 -13 -13 -13 -13 -13
-14 -14 -14 -14 -14 -14 -14 -14 -14 -14 -14 -14 -14 -14 -13 -13 -13 -13 -13 -13 -13 -12 -12 -13 -13 -13 -13 -13 -13 -12 -12 -13 -13 -14 -14 -13 -13 -13
-15 -15 -14 -14 -14 -14 -14 -14 -14 -14 -14 -14 -13 -13 -13 -13 -13 -13 -13 -13 -13 -13 -12 -13 -13 -13 -13 -13 -13 -13 -13 -13 -13 -13 -14 -14 -14 -14